Location: Unspecified
(33.6682°S, 0.0000°E)
Time: 17:54:53
(UTC+00:00)

Tiros 1 despin weight - Pass Details

Date: 17 June 2019
Orbit: 594 x 642 km, 48.2° (Epoch: 15 July)

Event Time Altitude Azimuth Distance (km) Brightness Sun altitude
Rises 15:33:21 0° 239° (WSW) 2,967 ? 13.8°
Reaches altitude 10° 15:36:52 10° 213° (SSW) 2,059 ? 13.2°
Maximum altitude 15:39:16 14° 182° (S) 1,823 ? 12.9°
Drops below altitude 10° 15:41:40 10° 152° (SSE) 2,057 ? 12.5°
Sets 15:45:10 0° 125° (SE) 2,961 ? 11.9°
